Regional Weather Roundup
Issued by NWS

Home | Current Version | Previous Version | Graphics & Text | Print | Product List | Glossary Off
Versions: 1 2 3 4 5 6 7 8 9 10 11 12 13 14 15 16 17 18 19 20 21 22 23 24 25 26 27 28 29 30 31 32 33 34 35 36 37 38 39 40 41 42 43 44 45 46 47 48 49 50

000
ASUS43 KMKX 291121
RWRWI

WISCONSIN REGIONAL WEATHER ROUNDUP
NATIONAL WEATHER SERVICE MILWAUKEE/SULLIVAN WI
600 AM CDT MON AUG 29 2016

NOTE: "FAIR" INDICATES FEW OR NO CLOUDS BELOW 12,000 FEET WITH NO
SIGNIFICANT WEATHER AND/OR OBSTRUCTIONS TO VISIBILITY.

WIZ001-002-006>008-014>016-023>028-291200-
NORTHWEST WISCONSIN

CITY           SKY/WX    TMP DP  RH WIND       PRES   REMARKS
SUPERIOR ARPT  RAIN      63  63 100 CALM      30.21S
ASHLAND        LGT RAIN  65  64  97 W6        30.22R FOG
HAYWARD        LGT RAIN  65  62  90 N15G31    30.24R FOG
SIREN          LGT RAIN  69  64  83 N6        30.21S
CUMBERLAND     CLOUDY    64  63  94 CALM      30.20R FOG
RICE LAKE      CLOUDY    64  63  95 CALM      30.21R FOG
CHETEK         NOT AVBL
LADYSMITH      CLOUDY    65  64  95 SE5       30.23R
EAU CLAIRE     CLEAR     66  65  96 SE3       30.18F
MENOMONIE      FOG       66  66  99 E3        30.19R VSB 1/2
NEW RICHMOND   CLEAR     67  67 100 CALM      30.18R
OSCEOLA        CLOUDY    66  66 100 CALM      30.20R FOG
$$

WIZ003>005-009-010-017-018-291200-
NORTH CENTRAL WISCONSIN

CITY           SKY/WX    TMP DP  RH WIND       PRES   REMARKS
MANITOWISH WTR NOT AVBL
ARBOR VITAE    CLOUDY    65  63  94 S6        30.23F
WOODRUFF       CLOUDY    65  63  94 S6        30.23F
RHINELANDER    CLOUDY    62  62 100 SE3       30.25S FOG
EAGLE RIVER    CLOUDY    61  61 100 CALM      30.24F FOG
LAND O LAKES   CLOUDY    61  61 100 CALM      30.24F FOG
PHILLIPS       CLOUDY    65  64  97 S3        30.23R
TOMAHAWK       CLOUDY    61  60  96 CALM      30.25S FOG
MEDFORD        CLOUDY    65  65 100 SE3       30.23R
MERRILL        CLOUDY    61  61 100 CALM      30.25R
$$

WIZ029-030-035-036-043>047-291200-
CENTRAL WISCONSIN

CITY           SKY/WX    TMP DP  RH WIND       PRES   REMARKS
WAUSAU         CLOUDY    65  64  97 SE5       30.23R
MOSINEE        CLOUDY    64  64 100 S3        30.25R FOG
MARSHFIELD     FOG       67  65  93 S7        30.22F VSB 1/2
STEVENS POINT  PTCLDY    64  64 100 S3        30.24S FOG
WAUPACA        CLEAR     66  65  99 CALM      30.24S FOG
WAUTOMA        CLOUDY    66  64  94 S3        30.24F FOG
WISC RAPIDS    CLOUDY    68  68 100 S6        30.24S FOG
CAMP DOUGLAS   FOG       63  63 100 VRB1      30.22S VSB 3/4
$$

WIZ011>013-019>022-031-037>040-048>050-291200-
NORTHEAST WISCONSIN

CITY           SKY/WX    TMP DP  RH WIND       PRES   REMARKS
ANTIGO         CLOUDY    63  63 100 CALM      30.27R FOG
SHAWANO        CLOUDY    65  63  91 CALM      30.25S
OCONTO         NOT AVBL
STURGEON BAY   FOG       61  60  97 CALM      30.27R VSB 1/4
GREEN BAY      CLOUDY    63  63 100 CALM      30.24S
MANITOWOC      FOG       59  57  94 CALM      30.26R VSB 1
APPLETON       MOCLDY    66  66 100 CALM      30.24R
CLINTONVILLE   CLOUDY    64  63  94 CALM      30.24S FOG
OSHKOSH        CLEAR     64  62  93 S5        30.24R
$$

WIZ032>034-041-042-053>061-291200-
SOUTHWEST WISCONSIN

CITY           SKY/WX    TMP DP  RH WIND       PRES   REMARKS
LA CROSSE      CLEAR     67  66  97 E3        30.20R
SPARTA         PTCLDY    57  57 100 CALM      30.23R
VIROQUA        CLEAR     66  66 100 SE3       30.24R
BOSCOBEL       FOG       67  67 100 CALM      30.22R VSB 1/4
PRAIRIE DU CHI CLEAR     66  65  94 CALM      30.21S
PLATTEVILLE    MOCLDY    66  66 100 E7        30.23S
$$

WIZ056-057-062-063-064-067-068-291200-
SOUTH CENTRAL WISCONSIN

CITY           SKY/WX    TMP DP  RH WIND       PRES   REMARKS
REEDSBURG      NOT AVBL
BARABOO/DELLS  CLOUDY    67  65  94 SE5       30.24S FOG
LONE ROCK      FOG       63  62  97 CALM      30.24R VSB 1
MINERAL POINT  CLEAR     68  68 100 CALM      30.24R FOG
MADISON        PTCLDY    64  63  96 NE3       30.24S FOG
MIDDLETON      PTCLDY    67  67 100 CALM      30.25S
WATERTOWN      PTCLDY    65  65 100 CALM      30.25S FOG
MONROE         FOG       66  64  94 CALM      30.24S VSB<1/4
JANESVILLE     CLOUDY    68  66  94 CALM      30.23R
$$

WIZ051-052-058>065-066-070>072-291200-
SOUTHEAST WISCONSIN

CITY           SKY/WX    TMP DP  RH WIND       PRES   REMARKS
MILWAUKEE      FOG       67  66  97 N5        30.25R VSB 1/4
WAUKESHA       CLEAR     61  61 100 CALM      30.26S
MILWAUKEE/TIMM CLEAR     61  59  94 CALM      30.26S
RACINE         PTCLDY    65  64  97 N5        30.26R FOG
BURLINGTON     FOG       62  62  99 CALM      30.25R VSB 1/4
KENOSHA        CLEAR     64  63  96 N3        30.25R FOG
FOND DU LAC    CLEAR     63  61  93 CALM      30.25R
SHEBOYGAN      FOG       58  58 100 CALM      30.26S VSB 1/4
WEST BEND      CLEAR     61  59  94 CALM      30.25S
JUNEAU         CLEAR     64  63  97 CALM      30.26S
$$

LSZ147-162-291200-
LAKE SUPERIOR

STATION/POSITION TIME  TEMP    WIND        PRES    WAVE
                       AIR SEA DIR/SP/G            HT/PER
                 (UTC) (F)     (DEG/KT/KT) (MB)    (FT/S)
W MID LAKE BUOY  1050   68 68  150/ 10/ 12 1019.7F   2/ 4
DEVILS ISLAND    1100   65     270/ 16/ 19 1022.1R
PORT WING        1100   64     140/ 10     1022.4F
SAXON HARBOR     1100   71     200/  8/ 15 1021.3
$$

LMZ867-665-643>646-291200-
LAKE MICHIGAN

STATION/POSITION TIME  TEMP    WIND        PRES    WAVE
                       AIR SEA DIR/SP/G            HT/PER
                 (UTC) (F)     (DEG/KT/KT) (MB)    (FT/S)
CHAMBERS ISLAND  1000   62        CALM     1024.4R
S GREEN BAY BUOY 1000   68 71  140/  2/  4 1023.8
N MID LAKE BUOY  1050   69 71  150/ 10/ 12 1024.0F   1
NORTHPORT PIER   1000   64        CALM     1024.4R
KEWAUNEE LAKESHO 1000   60     300/  2/  2 1023.8R
SHEBOYGAN LAKESH 1100   62     360/  3/  3 1024.1R
PORT WASHINGTON  1000   64      CALM  /  2 1024.7R
ATWATER BUOY     1100   64     340/  6/  8   N/A
MILWAUKEE LAKESH 1010   66     330/  2/  2   N/A
S MID LAKE BUOY  1050   73 75   40/  6/  8 1023.0F   0
KENOSHA   LAKESH 1100   69     360/  6/  7 1023.4S
$$

TC  - TEMPERATURE IN CELSIUS
VSB - VISIBILITY IN STATUTE MILES
WCI - WIND CHILL INDEX
HX  - HEAT INDEX





USA.gov is the U.S. government's official web portal to all federal, state and local government web resources and services.